Time,TemperatureF,DewpointF,PressureIn,WindDirection,WindDirectionDegrees,WindSpeedMPH,WindSpeedGustMPH,Humidity,HourlyPrecipIn,Conditions,Clouds,dailyrainin,SoftwareType,DateUTC
2013-07-05 00:12:00,75.0,73.0,30.22,SSW,210,0.0,0.0,94,0.00,,,0.00,,2013-07-05 04:12:00,
2013-07-05 00:22:00,75.0,73.0,30.22,SSW,210,0.0,0.0,94,0.00,,,0.00,,2013-07-05 04:22:00,
2013-07-05 00:33:00,74.0,72.0,30.22,SE,131,0.0,2.0,94,0.00,,,0.00,,2013-07-05 04:33:00,
2013-07-05 00:43:00,74.0,72.0,30.22,SE,131,0.0,2.0,94,0.00,,,0.00,,2013-07-05 04:43:00,
2013-07-05 00:53:00,74.0,72.0,30.22,SE,131,0.0,0.0,94,0.00,,,0.00,,2013-07-05 04:53:00,
2013-07-05 01:01:00,74.0,72.0,30.22,SE,131,0.0,0.0,94,0.00,,,0.00,,2013-07-05 05:01:00,
2013-07-05 01:12:00,75.0,73.0,30.22,SE,141,1.0,3.0,94,0.00,,,0.00,,2013-07-05 05:12:00,
2013-07-05 01:22:00,75.0,73.0,30.22,West,269,1.0,4.0,93,0.00,,,0.00,,2013-07-05 05:22:00,
2013-07-05 01:33:00,74.0,72.0,30.22,SSE,150,1.0,2.0,93,0.00,,,0.00,,2013-07-05 05:33:00,
2013-07-05 01:43:00,74.0,72.0,30.22,SSE,156,0.0,2.0,93,0.00,,,0.00,,2013-07-05 05:43:00,
2013-07-05 01:52:00,74.0,72.0,30.22,SSE,156,0.0,2.0,93,0.00,,,0.00,,2013-07-05 05:52:00,
2013-07-05 02:02:00,74.0,72.0,30.22,SE,136,0.0,0.0,93,0.00,,,0.00,,2013-07-05 06:02:00,
2013-07-05 02:13:00,74.0,72.0,30.22,SE,128,0.0,2.0,93,0.00,,,0.00,,2013-07-05 06:13:00,
2013-07-05 02:23:00,74.0,72.0,30.22,SE,128,0.0,2.0,93,0.00,,,0.00,,2013-07-05 06:23:00,
2013-07-05 02:34:00,74.0,72.0,30.22,SE,139,0.0,1.0,94,0.00,,,0.00,,2013-07-05 06:34:00,
2013-07-05 02:44:00,74.0,72.0,30.22,SE,146,0.0,1.0,94,0.00,,,0.00,,2013-07-05 06:44:00,
2013-07-05 02:53:00,74.0,72.0,30.22,SE,146,0.0,1.0,94,0.00,,,0.00,,2013-07-05 06:53:00,
2013-07-05 03:02:00,73.0,71.0,30.22,SE,146,0.0,0.0,94,0.00,,,0.00,,2013-07-05 07:02:00,
2013-07-05 03:12:00,73.0,71.0,30.22,SE,146,0.0,0.0,95,0.00,,,0.00,,2013-07-05 07:12:00,
2013-07-05 03:23:00,73.0,71.0,30.22,SE,146,0.0,0.0,95,0.00,,,0.00,,2013-07-05 07:23:00,
2013-07-05 03:34:00,73.0,71.0,30.22,West,281,1.0,2.0,95,0.00,,,0.00,,2013-07-05 07:34:00,
2013-07-05 03:53:00,73.0,71.0,30.22,WSW,257,0.0,2.0,94,0.00,,,0.00,,2013-07-05 07:53:00,
2013-07-05 04:03:00,73.0,71.0,30.22,WSW,257,0.0,1.0,94,0.00,,,0.00,,2013-07-05 08:03:00,
2013-07-05 04:23:00,73.0,71.0,30.22,WSW,237,0.0,0.0,93,0.00,,,0.00,,2013-07-05 08:23:00,
2013-07-05 04:33:00,73.0,71.0,30.22,WSW,248,0.0,0.0,93,0.00,,,0.00,,2013-07-05 08:33:00,
2013-07-05 04:44:00,73.0,71.0,30.22,WNW,289,0.0,1.0,93,0.00,,,0.00,,2013-07-05 08:44:00,
2013-07-05 04:55:00,73.0,71.0,30.22,WNW,289,0.0,1.0,93,0.00,,,0.00,,2013-07-05 08:55:00,
2013-07-05 05:27:00,72.0,70.0,30.22,WNW,287,0.0,0.0,94,0.00,,,0.00,,2013-07-05 09:27:00,
2013-07-05 05:37:00,73.0,71.0,30.22,West,278,0.0,3.0,94,0.00,,,0.00,,2013-07-05 09:37:00,
2013-07-05 05:48:00,72.0,70.0,30.23,WSW,248,0.0,1.0,94,0.00,,,0.00,,2013-07-05 09:48:00,
2013-07-05 05:55:00,72.0,70.0,30.23,WSW,248,0.0,1.0,94,0.00,,,0.00,,2013-07-05 09:55:00,
2013-07-05 06:08:00,72.0,70.0,30.23,WSW,246,0.0,0.0,95,0.00,,,0.00,,2013-07-05 10:08:00,
2013-07-05 06:19:00,72.0,70.0,30.24,WSW,252,0.0,0.0,95,0.00,,,0.00,,2013-07-05 10:19:00,
2013-07-05 06:38:00,72.0,70.0,30.24,SE,125,0.0,0.0,95,0.00,,,0.00,,2013-07-05 10:38:00,
2013-07-05 06:47:00,73.0,71.0,30.24,WSW,258,0.0,1.0,95,0.00,,,0.00,,2013-07-05 10:47:00,
2013-07-05 07:10:00,74.0,72.0,30.24,ESE,115,0.0,0.0,94,0.00,,,0.00,,2013-07-05 11:10:00,
2013-07-05 07:18:00,76.0,73.0,30.24,SSW,200,0.0,0.0,91,0.00,,,0.00,,2013-07-05 11:18:00,
2013-07-05 07:25:00,76.0,73.0,30.24,SSW,200,0.0,0.0,91,0.00,,,0.00,,2013-07-05 11:25:00,
2013-07-05 07:37:00,77.0,74.0,30.24,WSW,246,0.0,2.0,89,0.00,,,0.00,,2013-07-05 11:37:00,
2013-07-05 07:48:00,78.0,74.0,30.23,SW,228,0.0,3.0,88,0.00,,,0.00,,2013-07-05 11:48:00,
2013-07-05 07:58:00,78.0,74.0,30.23,SW,228,0.0,3.0,88,0.00,,,0.00,,2013-07-05 11:58:00,
2013-07-05 08:16:00,79.0,74.0,30.24,WNW,284,0.0,2.0,85,0.00,,,0.00,,2013-07-05 12:16:00,
2013-07-05 08:37:00,80.0,74.0,30.24,WNW,300,1.0,8.0,83,0.00,,,0.00,,2013-07-05 12:37:00,
2013-07-05 08:49:00,80.0,74.0,30.24,WSW,246,1.0,8.0,81,0.00,,,0.00,,2013-07-05 12:49:00,
2013-07-05 08:57:00,80.0,74.0,30.24,WSW,246,1.0,8.0,81,0.00,,,0.00,,2013-07-05 12:57:00,
2013-07-05 09:07:00,81.0,74.0,30.24,SSE,158,2.0,4.0,80,0.00,,,0.00,,2013-07-05 13:07:00,
2013-07-05 09:25:00,82.0,75.0,30.23,WSW,252,2.0,5.0,79,0.00,,,0.00,,2013-07-05 13:25:00,
2013-07-05 09:39:00,82.0,74.0,30.23,West,264,2.0,8.0,77,0.00,,,0.00,,2013-07-05 13:39:00,
2013-07-05 09:48:00,83.0,75.0,30.22,SW,222,0.0,5.0,77,0.00,,,0.00,,2013-07-05 13:48:00,
2013-07-05 09:56:00,83.0,75.0,30.22,SW,222,0.0,5.0,77,0.00,,,0.00,,2013-07-05 13:56:00,
2013-07-05 10:08:00,83.0,75.0,30.22,WSW,246,1.0,4.0,76,0.00,,,0.00,,2013-07-05 14:08:00,
2013-07-05 10:28:00,84.0,76.0,30.22,WSW,248,1.0,3.0,76,0.00,,,0.00,,2013-07-05 14:28:00,
2013-07-05 10:38:00,83.0,75.0,30.22,WSW,245,1.0,3.0,76,0.00,,,0.00,,2013-07-05 14:38:00,
2013-07-05 10:46:00,85.0,76.0,30.22,WSW,246,1.0,2.0,74,0.00,,,0.00,,2013-07-05 14:46:00,
2013-07-05 10:55:00,85.0,76.0,30.22,WSW,246,1.0,2.0,74,0.00,,,0.00,,2013-07-05 14:55:00,
2013-07-05 11:25:00,85.0,75.0,30.22,WSW,243,1.0,6.0,73,0.00,,,0.00,,2013-07-05 15:25:00,
2013-07-05 11:34:00,87.0,75.0,30.22,SW,226,2.0,5.0,68,0.00,,,0.00,,2013-07-05 15:34:00,
2013-07-05 11:43:00,86.0,73.0,30.21,West,259,4.0,7.0,66,0.00,,,0.00,,2013-07-05 15:43:00,
2013-07-05 11:53:00,86.0,73.0,30.21,West,259,4.0,7.0,66,0.00,,,0.00,,2013-07-05 15:53:00,
2013-07-05 12:02:00,86.0,75.0,30.21,West,270,2.0,3.0,70,0.00,,,0.00,,2013-07-05 16:02:00,
2013-07-05 12:11:00,86.0,75.0,30.21,West,270,2.0,3.0,70,0.00,,,0.00,,2013-07-05 16:11:00,
2013-07-05 12:22:00,86.0,75.0,30.21,WNW,289,1.0,3.0,70,0.00,,,0.00,,2013-07-05 16:22:00,
2013-07-05 12:33:00,88.0,77.0,30.20,WSW,253,2.0,7.0,69,0.00,,,0.00,,2013-07-05 16:33:00,
2013-07-05 12:44:00,89.0,76.0,30.20,SW,235,2.0,4.0,65,0.00,,,0.00,,2013-07-05 16:44:00,
2013-07-05 12:53:00,89.0,76.0,30.20,SW,235,2.0,4.0,65,0.00,,,0.00,,2013-07-05 16:53:00,
2013-07-05 13:02:00,90.0,76.0,30.20,SE,139,2.0,6.0,63,0.00,,,0.00,,2013-07-05 17:02:00,
2013-07-05 13:12:00,90.0,76.0,30.20,SE,139,2.0,6.0,63,0.00,,,0.00,,2013-07-05 17:12:00,
2013-07-05 13:22:00,89.0,74.0,30.19,SSW,200,2.0,6.0,61,0.00,,,0.00,,2013-07-05 17:22:00,
2013-07-05 13:43:00,90.0,74.0,30.19,SW,215,1.0,10.0,60,0.00,,,0.00,,2013-07-05 17:43:00,
2013-07-05 13:53:00,90.0,74.0,30.19,SW,215,1.0,10.0,60,0.00,,,0.00,,2013-07-05 17:53:00,
2013-07-05 14:02:00,90.0,75.0,30.18,ENE,67,1.0,9.0,61,0.00,,,0.00,,2013-07-05 18:02:00,
2013-07-05 14:22:00,90.0,75.0,30.18,SW,221,1.0,7.0,62,0.00,,,0.00,,2013-07-05 18:22:00,
2013-07-05 14:33:00,89.0,75.0,30.17,SSW,203,1.0,8.0,64,0.00,,,0.00,,2013-07-05 18:33:00,
2013-07-05 14:53:00,90.0,75.0,30.17,West,266,1.0,7.0,61,0.00,,,0.00,,2013-07-05 18:53:00,
2013-07-05 15:02:00,90.0,76.0,30.17,ENE,66,2.0,8.0,64,0.00,,,0.00,,2013-07-05 19:02:00,
2013-07-05 15:22:00,90.0,74.0,30.16,West,274,2.0,5.0,60,0.00,,,0.00,,2013-07-05 19:22:00,
2013-07-05 15:34:00,91.0,76.0,30.16,SSE,153,2.0,7.0,61,0.00,,,0.00,,2013-07-05 19:34:00,
2013-07-05 15:43:00,91.0,77.0,30.16,SSE,150,2.0,9.0,63,0.00,,,0.00,,2013-07-05 19:43:00,
2013-07-05 15:53:00,91.0,77.0,30.16,SSE,150,2.0,9.0,63,0.00,,,0.00,,2013-07-05 19:53:00,
2013-07-05 16:02:00,91.0,76.0,30.15,SSW,204,2.0,5.0,61,0.00,,,0.00,,2013-07-05 20:02:00,
2013-07-05 16:11:00,91.0,76.0,30.15,SSW,204,2.0,5.0,61,0.00,,,0.00,,2013-07-05 20:11:00,
2013-07-05 16:22:00,90.0,75.0,30.14,SSW,198,1.0,11.0,61,0.00,,,0.00,,2013-07-05 20:22:00,
2013-07-05 16:33:00,90.0,75.0,30.14,SW,219,3.0,10.0,62,0.00,,,0.00,,2013-07-05 20:33:00,
2013-07-05 16:53:00,89.0,75.0,30.14,WSW,243,3.0,7.0,63,0.00,,,0.00,,2013-07-05 20:53:00,
2013-07-05 17:02:00,90.0,75.0,30.14,SSE,153,2.0,7.0,62,0.00,,,0.00,,2013-07-05 21:02:00,
2013-07-05 17:12:00,89.0,74.0,30.14,East,96,1.0,8.0,62,0.00,,,0.00,,2013-07-05 21:12:00,
2013-07-05 17:22:00,89.0,74.0,30.14,East,96,1.0,8.0,62,0.00,,,0.00,,2013-07-05 21:22:00,
2013-07-05 17:34:00,90.0,75.0,30.13,SW,233,3.0,10.0,61,0.00,,,0.00,,2013-07-05 21:34:00,
2013-07-05 17:53:00,90.0,75.0,30.13,NNW,336,2.0,5.0,62,0.00,,,0.00,,2013-07-05 21:53:00,
2013-07-05 18:02:00,88.0,74.0,30.13,WSW,245,1.0,6.0,64,0.00,,,0.00,,2013-07-05 22:02:00,
2013-07-05 18:12:00,89.0,75.0,30.13,NW,307,0.0,5.0,64,0.00,,,0.00,,2013-07-05 22:12:00,
2013-07-05 18:22:00,89.0,75.0,30.13,NW,307,0.0,5.0,64,0.00,,,0.00,,2013-07-05 22:22:00,
2013-07-05 18:34:00,88.0,75.0,30.13,South,190,3.0,10.0,65,0.00,,,0.00,,2013-07-05 22:34:00,
2013-07-05 18:43:00,88.0,74.0,30.12,SSW,198,2.0,7.0,63,0.00,,,0.00,,2013-07-05 22:43:00,
2013-07-05 18:53:00,88.0,74.0,30.12,SSW,198,2.0,7.0,63,0.00,,,0.00,,2013-07-05 22:53:00,
2013-07-05 19:02:00,88.0,75.0,30.11,SW,228,1.0,6.0,65,0.00,,,0.00,,2013-07-05 23:02:00,
2013-07-05 19:11:00,88.0,74.0,30.11,SE,142,2.0,6.0,64,0.00,,,0.00,,2013-07-05 23:11:00,
2013-07-05 19:23:00,88.0,74.0,30.11,SE,142,2.0,6.0,64,0.00,,,0.00,,2013-07-05 23:23:00,
2013-07-05 19:32:00,88.0,74.0,30.11,SSE,151,1.0,6.0,64,0.00,,,0.00,,2013-07-05 23:32:00,
2013-07-05 19:43:00,86.0,74.0,30.11,SSW,194,1.0,4.0,67,0.00,,,0.00,,2013-07-05 23:43:00,
2013-07-05 19:53:00,86.0,74.0,30.11,SSW,194,1.0,4.0,67,0.00,,,0.00,,2013-07-05 23:53:00,
2013-07-05 20:02:00,85.0,75.0,30.12,West,278,0.0,4.0,71,0.00,,,0.00,,2013-07-06 00:02:00,
2013-07-05 20:12:00,85.0,75.0,30.12,West,278,0.0,4.0,71,0.00,,,0.00,,2013-07-06 00:12:00,
2013-07-05 20:22:00,84.0,74.0,30.12,SSE,158,0.0,2.0,72,0.00,,,0.00,,2013-07-06 00:22:00,
2013-07-05 20:33:00,83.0,75.0,30.12,WSW,240,1.0,3.0,76,0.00,,,0.00,,2013-07-06 00:33:00,
2013-07-05 20:42:00,81.0,74.0,30.11,SSE,152,0.0,2.0,79,0.00,,,0.00,,2013-07-06 00:42:00,
2013-07-05 20:53:00,81.0,74.0,30.11,SSE,152,0.0,2.0,79,0.00,,,0.00,,2013-07-06 00:53:00,
2013-07-05 21:02:00,81.0,75.0,30.12,ESE,106,0.0,2.0,83,0.00,,,0.00,,2013-07-06 01:02:00,
2013-07-05 21:22:00,80.0,75.0,30.13,SE,143,0.0,1.0,85,0.00,,,0.00,,2013-07-06 01:22:00,
2013-07-05 21:43:00,79.0,75.0,30.14,SE,142,0.0,0.0,88,0.00,,,0.00,,2013-07-06 01:43:00,
2013-07-05 21:53:00,79.0,75.0,30.14,SE,142,0.0,0.0,88,0.00,,,0.00,,2013-07-06 01:53:00,
2013-07-05 22:02:00,78.0,74.0,30.14,SW,235,1.0,3.0,89,0.00,,,0.00,,2013-07-06 02:02:00,
2013-07-05 22:22:00,78.0,75.0,30.15,SW,235,0.0,0.0,90,0.00,,,0.00,,2013-07-06 02:22:00,
2013-07-05 22:34:00,77.0,74.0,30.14,SE,142,0.0,2.0,90,0.00,,,0.00,,2013-07-06 02:34:00,
2013-07-05 22:43:00,77.0,74.0,30.14,SE,140,0.0,2.0,91,0.00,,,0.00,,2013-07-06 02:43:00,
2013-07-05 22:53:00,77.0,74.0,30.14,SE,140,0.0,2.0,91,0.00,,,0.00,,2013-07-06 02:53:00,
2013-07-05 23:02:00,77.0,74.0,30.14,SSW,204,0.0,0.0,91,0.00,,,0.00,,2013-07-06 03:02:00,
2013-07-05 23:22:00,76.0,74.0,30.15,SSW,204,0.0,0.0,92,0.00,,,0.00,,2013-07-06 03:22:00,
2013-07-05 23:34:00,76.0,74.0,30.15,East,86,0.0,0.0,92,0.00,,,0.00,,2013-07-06 03:34:00,
2013-07-05 23:43:00,76.0,74.0,30.15,East,91,0.0,0.0,92,0.00,,,0.00,,2013-07-06 03:43:00,
2013-07-05 23:53:00,76.0,74.0,30.15,East,91,0.0,0.0,92,0.00,,,0.00,,2013-07-06 03:53:00,